Theta_e
276 276 276 276 276 276 276 276 276 276 276 276 275 276 274 275 272 270 270 272 272 273 276 274 275 277 277 277 278 278 278 280 281 279 278 278 278 281 285 287 287 287 290 290 289 289 290 291 292 292 293 294 294 295 296 296 296 297 298 299 300 301 301 302 303 303 304 304 305 306 306 306 307 308
276 276 275 275 276 275 275 275 275 275 274 274 275 274 275 275 273 272 271 271 273 273 275 275 274 276 276 277 277 277 277 281 280 278 277 277 277 282 283 284 285 286 288 288 288 290 290 290 290 290 291 292 293 294 294 294 295 296 297 299 299 300 300 301 302 301 301 302 303 304 305 306 307 307
275 274 274 274 274 274 274 274 274 274 274 275 274 275 275 274 274 272 272 269 273 273 273 274 275 275 275 276 276 276 277 278 278 276 276 276 279 281 279 281 283 285 285 285 287 288 289 289 289 290 290 291 292 292 293 293 293 294 295 296 298 298 299 299 299 299 300 301 302 303 304 304 305 307
275 274 273 273 273 274 273 274 274 273 274 274 275 274 274 274 273 273 272 270 270 274 274 274 274 275 274 275 275 275 275 277 278 276 276 276 279 277 276 279 281 282 283 285 286 287 288 289 288 288 288 289 290 291 291 292 292 292 293 295 296 297 296 296 297 298 298 299 300 301 302 302 303 304
273 273 273 273 273 273 273 273 274 273 273 273 274 274 274 274 273 272 272 270 270 273 274 274 274 274 274 273 274 273 273 274 274 276 275 275 275 275 275 276 279 281 282 284 285 286 287 288 287 287 288 288 289 289 290 290 290 291 292 293 293 295 295 296 297 297 297 298 298 299 300 301 302 302
274 272 272 272 272 273 272 272 272 272 272 272 272 272 273 272 273 272 272 271 270 270 272 272 273 273 274 272 274 272 272 273 274 273 274 275 275 275 275 275 275 280 281 283 285 286 286 287 287 287 287 287 288 289 289 289 289 290 290 290 290 291 292 294 294 295 295 297 298 298 299 299 300 301
272 272 272 272 272 273 271 272 271 272 271 272 271 271 272 271 271 272 272 271 269 269 270 272 271 272 272 272 272 273 273 274 274 273 273 274 275 275 275 275 275 279 281 284 284 285 285 285 286 286 286 286 287 287 288 288 288 288 289 289 289 289 290 291 292 293 294 295 297 297 297 298 299 300
272 272 271 272 272 271 271 271 271 271 271 271 271 271 271 271 271 271 271 271 270 269 268 270 270 271 271 272 272 273 273 273 273 273 273 274 274 274 275 275 275 277 282 283 283 284 284 284 285 285 285 286 286 287 287 287 287 287 287 287 287 288 288 289 289 290 291 293 294 296 297 297 297 298
272 272 272 271 272 271 270 270 270 271 270 271 271 270 271 271 271 272 271 271 271 269 268 269 271 272 271 272 272 272 271 272 273 273 273 273 273 274 274 275 276 279 281 281 281 281 282 283 284 285 285 285 286 286 286 287 286 286 286 286 286 287 287 288 289 289 290 291 292 293 295 297 297 297
272 272 272 272 272 271 270 270 270 270 270 270 270 270 270 271 271 270 271 271 271 271 270 270 269 271 270 271 271 272 272 271 271 272 273 274 274 274 273 274 275 276 276 276 276 279 280 281 283 284 284 285 285 286 286 286 286 285 284 285 285 286 287 288 289 289 290 290 291 291 293 294 295 295
272 272 272 271 272 271 271 270 270 269 270 270 269 270 270 271 270 271 271 271 271 271 270 270 270 270 271 272 271 273 274 273 272 271 272 272 274 274 274 273 275 276 276 278 280 280 280 281 281 282 284 284 284 285 285 285 284 284 284 284 285 286 287 288 288 288 289 289 290 290 291 291 293 293
272 272 272 272 272 271 271 271 270 271 270 270 269 270 270 271 272 272 271 271 271 270 270 270 270 270 270 271 273 273 273 272 272 273 273 271 272 273 275 275 275 276 276 275 276 279 279 279 280 282 282 282 283 283 283 282 282 282 283 284 285 286 286 287 287 288 288 288 289 289 290 290 291 292
271 271 271 272 272 272 276 277 276 276 276 271 267 268 270 271 271 271 271 271 271 271 270 270 271 271 271 271 271 271 271 271 271 274 274 273 274 274 274 275 276 276 276 276 277 277 278 277 277 277 276 277 279 279 281 281 281 281 283 284 285 286 286 286 287 287 287 288 288 288 289 289 290 290
270 271 271 272 276 276 276 276 276 276 276 276 275 272 272 272 272 270 270 270 270 271 270 270 270 270 270 271 272 271 272 274 274 274 274 272 273 274 274 275 276 277 277 276 275 277 278 277 276 276 275 277 278 277 277 277 279 282 284 284 285 285 285 286 286 287 287 287 287 288 288 289 289 290
269 269 270 270 272 274 274 273 275 275 276 276 276 277 277 276 274 272 272 272 272 271 271 272 272 271 271 272 273 273 273 274 274 274 274 273 273 272 271 270 274 278 277 276 275 275 277 276 274 275 275 276 277 278 277 281 282 282 284 284 285 285 285 285 286 286 286 287 287 287 288 289 289 289
270 269 270 270 270 270 269 270 270 273 274 275 275 276 276 277 277 278 275 274 273 273 272 272 272 272 271 272 273 273 274 274 274 274 274 274 273 272 272 272 272 276 278 275 273 273 275 275 275 274 276 277 277 277 280 282 282 283 284 284 284 284 285 285 285 286 286 286 286 286 287 287 288 289
271 270 270 269 270 270 274 272 270 269 269 273 275 276 277 277 278 278 279 279 276 275 273 272 272 273 273 273 273 274 274 275 273 274 273 274 274 274 273 273 273 274 276 274 272 271 274 275 274 274 275 276 276 277 279 282 283 283 283 284 284 284 284 284 285 285 285 285 285 286 286 287 287 287
272 271 269 268 268 269 269 269 270 270 269 269 270 271 272 273 275 277 278 277 277 277 275 274 272 274 274 273 274 275 276 275 273 273 272 273 272 271 270 272 272 274 275 273 272 271 272 274 274 273 275 276 277 277 279 282 282 283 283 283 283 283 284 284 284 284 285 285 285 285 286 286 286 287
273 271 270 268 268 268 268 269 270 269 270 271 272 273 274 275 275 275 274 275 275 275 275 274 274 274 275 275 275 276 276 275 274 273 272 272 272 272 273 273 274 274 275 275 273 269 272 274 273 274 275 276 276 276 278 281 282 282 282 283 283 283 283 283 284 284 284 284 285 285 285 285 286 286
271 270 269 269 268 268 268 272 275 275 274 274 274 274 274 273 273 274 276 277 277 276 275 275 275 275 276 278 276 275 275 274 273 273 273 273 272 271 269 269 271 271 275 276 274 272 272 275 273 272 274 275 274 275 275 279 281 281 282 282 282 282 283 283 283 283 284 284 284 285 285 285 285 285
269 269 269 269 269 268 268 272 276 277 277 275 274 273 271 272 273 273 273 276 277 277 277 278 278 278 277 277 277 276 276 274 273 271 269 268 269 267 266 268 269 270 272 274 275 273 271 273 272 271 273 274 274 274 274 275 278 280 281 281 281 282 282 282 282 283 283 283 284 284 284 284 284 284
269 269 272 272 270 269 270 274 276 278 277 275 273 272 272 272 272 272 272 272 273 276 276 276 275 274 273 273 273 272 274 274 273 268 266 268 269 267 267 266 267 268 270 272 275 270 269 271 272 271 272 273 273 274 274 274 275 278 278 280 281 281 281 282 282 282 282 282 283 283 283 284 283 281
269 269 271 273 273 273 273 276 277 278 278 274 274 274 273 272 271 271 271 270 271 271 269 267 266 266 268 267 267 267 272 272 271 269 269 269 268 266 266 266 266 265 267 271 273 268 269 270 272 271 269 267 270 272 273 274 274 274 274 275 275 279 280 281 281 281 281 282 282 283 283 283 283 279
267 268 269 272 275 277 277 278 279 279 279 276 275 274 272 271 269 271 271 272 270 267 265 264 264 265 265 265 266 266 266 268 268 269 269 268 267 265 265 265 265 264 265 269 273 270 270 271 270 272 270 267 266 270 273 273 273 274 274 274 273 277 279 278 278 279 280 281 282 282 282 283 282 279
267 268 269 270 274 276 277 278 278 278 278 277 276 274 271 271 272 274 270 268 268 264 263 262 262 263 263 263 264 265 266 267 267 267 268 268 267 266 265 265 265 265 267 270 274 270 268 270 269 271 270 270 270 269 272 273 274 273 274 274 273 274 274 274 276 275 278 279 280 281 281 282 283 281
268 268 269 270 274 276 277 277 278 278 277 278 275 273 275 276 276 273 266 264 262 260 260 260 261 261 261 261 262 263 264 265 266 266 267 268 268 268 268 267 265 265 266 270 273 269 268 267 269 268 269 269 269 271 270 271 273 274 274 274 274 274 274 274 274 274 274 275 275 277 279 283 283 283
268 269 270 272 275 276 277 277 277 277 278 276 274 275 275 275 275 269 264 262 259 258 259 259 259 260 260 260 261 262 263 265 265 266 266 267 268 268 269 269 269 268 268 269 270 269 268 267 269 268 268 269 268 269 270 269 270 274 274 274 274 275 275 274 274 274 275 275 275 280 281 281 281 282
270 271 272 273 276 276 277 277 277 277 276 275 275 275 275 275 271 264 260 258 257 259 258 258 259 259 260 260 261 262 263 264 265 266 266 267 267 268 268 268 268 269 269 269 269 269 269 268 268 270 270 269 268 267 268 271 272 272 272 274 274 275 275 275 274 274 275 275 275 275 275 275 277 277
272 274 276 276 276 277 277 277 278 275 274 274 273 273 274 272 261 260 258 257 256 256 258 258 259 259 260 261 263 264 265 265 265 265 265 266 266 266 266 267 267 267 268 268 268 268 268 268 268 269 269 269 268 268 269 268 270 271 272 272 272 274 274 275 275 274 274 275 275 275 276 276 276 277
276 276 277 277 277 277 277 275 270 267 266 271 272 273 271 261 259 258 256 256 256 257 258 259 259 260 261 262 263 264 264 263 262 263 263 264 264 264 264 264 264 264 265 267 267 268 269 269 269 268 268 268 269 268 268 268 268 270 271 271 271 273 274 274 274 275 275 275 276 276 277 277 277 277
276 276 276 275 276 275 275 274 274 272 271 266 263 262 261 259 257 258 257 257 257 258 258 259 260 260 261 262 262 261 261 261 262 264 264 263 263 264 264 263 262 263 265 265 267 268 268 269 269 268 267 267 267 267 268 268 267 268 269 270 271 269 272 275 275 275 276 276 277 277 277 278 277 278
274 273 275 275 273 270 266 263 259 258 259 260 260 259 258 257 259 262 265 265 259 258 258 259 259 259 259 259 259 260 260 261 262 263 263 263 263 263 263 262 261 262 263 264 265 266 268 268 268 268 268 267 266 267 268 267 267 268 269 271 272 273 274 274 275 275 276 276 276 276 277 277 277 277
271 270 269 268 268 266 264 262 260 258 256 257 257 256 255 255 255 255 255 254 257 257 256 257 258 258 258 259 259 259 260 260 261 262 262 262 262 262 262 261 261 261 261 262 264 265 266 266 267 268 268 268 268 268 267 266 268 269 269 271 272 272 273 274 273 274 275 275 274 275 276 277 277 277
269 269 268 268 267 266 265 263 261 260 257 257 256 255 261 259 255 256 256 255 257 257 257 257 257 257 258 258 259 259 260 261 261 263 265 262 261 260 260 260 260 261 262 262 263 263 264 265 266 266 267 267 268 268 268 267 267 269 271 271 270 269 271 272 273 274 275 275 275 274 275 276 277 277
270 268 268 267 267 266 265 264 263 260 258 257 256 257 255 255 257 259 256 255 256 257 257 257 257 257 257 258 259 259 260 260 261 261 260 259 260 260 260 260 261 261 261 262 262 263 264 264 264 264 265 266 266 265 272 271 268 268 269 269 269 269 270 272 273 274 275 275 276 274 275 276 276 277
270 269 268 267 266 265 263 263 262 260 258 257 257 256 255 257 255 257 256 257 257 255 255 256 257 257 257 258 258 259 260 261 261 261 261 260 260 260 260 260 261 261 261 262 262 263 264 263 264 263 262 263 263 263 264 271 272 270 268 268 269 270 271 272 274 274 275 275 276 276 274 274 276 277
270 268 268 267 266 264 264 263 261 259 258 258 257 255 257 257 258 257 258 259 258 256 256 256 257 257 257 258 259 260 260 260 260 261 261 260 260 260 260 260 261 261 261 262 262 263 263 263 264 263 262 262 261 261 263 268 271 273 270 268 269 271 271 272 273 273 274 275 275 276 275 276 276 278
271 269 267 267 266 264 263 262 260 258 257 257 257 256 258 257 257 257 255 255 257 255 256 255 256 257 257 258 257 257 258 259 260 260 261 260 260 260 260 260 261 261 261 262 262 262 263 263 263 263 263 261 261 262 262 265 267 269 272 271 269 271 272 271 271 272 272 273 273 276 277 276 276 277
271 269 267 266 265 264 262 260 259 259 258 257 256 257 257 254 256 256 254 255 256 255 254 254 255 256 257 256 257 258 258 259 259 260 260 260 260 260 260 261 261 261 261 260 261 261 262 262 263 263 263 263 262 263 264 264 264 267 271 275 273 270 271 272 271 271 270 271 273 275 276 276 277 280
268 268 268 267 266 264 262 260 259 259 258 258 257 256 255 256 254 254 253 255 254 254 254 255 257 258 256 256 257 256 257 258 259 260 261 260 260 261 261 261 261 261 260 260 260 261 261 261 263 263 264 265 266 267 267 267 268 269 270 271 274 273 272 272 270 270 270 272 273 273 273 273 271 273
267 266 265 264 264 262 262 261 260 258 258 258 257 258 257 255 254 254 252 253 255 254 254 254 254 253 255 255 255 256 256 258 259 260 260 260 261 261 262 262 260 260 260 259 260 260 260 262 264 268 267 267 267 268 266 264 263 265 266 268 272 274 275 274 272 271 271 273 273 273 273 272 271 272
267 266 266 264 263 263 261 260 259 258 258 257 257 256 255 254 255 258 258 259 256 254 253 254 254 254 255 255 255 257 256 257 258 259 259 259 259 260 261 260 259 260 260 259 260 260 262 264 264 265 265 266 266 264 262 263 263 264 266 267 268 272 274 273 274 274 273 273 272 271 272 273 272 271
266 266 266 264 263 262 261 260 259 258 258 257 256 256 254 255 253 254 253 254 254 253 253 253 253 253 254 254 254 255 256 257 257 257 258 259 260 260 259 259 259 260 260 260 261 261 262 262 263 264 265 265 264 264 262 263 264 265 265 265 267 268 268 271 272 274 275 276 276 274 273 272 271 268
265 264 264 263 261 261 260 259 259 258 258 258 257 255 255 254 254 254 252 253 252 253 252 252 253 253 253 254 254 254 254 255 256 257 259 260 260 260 260 260 260 260 260 261 260 260 261 261 263 264 263 263 264 263 263 264 263 264 264 265 266 265 264 265 267 270 272 274 275 275 276 276 276 275
265 264 263 261 260 260 259 259 258 258 257 257 256 255 255 254 254 254 252 252 252 253 252 252 253 253 253 253 253 254 255 259 259 257 258 259 259 260 260 260 259 260 260 260 259 259 260 261 263 264 263 262 263 263 264 264 263 263 264 264 263 263 263 264 264 265 267 268 272 274 275 275 275 276
Wind_Speed
4 4 4 3 3 3 3 4 5 4 3 3 3 2 1 1 2 4 5 9 3 3 3 3 4 6 7 6 8 10 10 12 16 9 9 10 10 17 24 24 24 24 24 24 24 24 23 24 25 26 26 26 26 27 27 27 27 27 27 27 27 27 26 26 25 25 26 25 25 24 24 25 25 25
4 3 4 3 3 2 4 4 3 3 3 3 2 2 2 1 1 2 5 8 3 6 1 4 5 7 8 6 7 7 8 14 16 11 10 10 10 21 24 23 24 24 25 24 23 23 24 25 25 26 27 27 27 27 27 27 28 28 28 28 27 27 26 25 25 26 26 26 26 25 25 24 24 25
4 3 3 3 3 2 3 3 3 3 3 3 2 3 2 3 0 2 3 4 5 4 4 1 3 8 7 8 8 6 7 10 15 12 11 10 18 22 16 21 23 24 25 24 23 23 24 24 24 25 25 26 27 27 27 27 28 28 28 28 27 27 26 26 26 26 26 25 26 25 25 25 25 24
4 4 3 2 2 2 3 3 3 2 3 1 2 2 1 2 2 1 3 6 14 9 5 6 4 6 8 8 9 8 7 9 14 10 10 12 17 10 9 16 22 23 24 24 24 24 24 24 24 25 25 25 26 26 26 26 26 26 26 26 26 27 27 27 27 26 26 26 26 25 25 25 25 25
3 3 3 2 2 1 3 2 2 3 3 2 2 1 2 2 3 3 3 7 12 14 1 3 6 7 7 7 7 11 9 10 9 10 9 10 10 9 8 9 16 22 23 23 24 24 24 24 24 24 24 25 25 26 26 27 26 26 26 26 26 26 26 26 26 26 26 26 26 26 26 25 25 24
2 2 2 2 2 1 2 2 3 2 3 2 1 2 2 3 3 3 4 6 8 15 13 6 5 7 6 8 5 9 13 12 10 11 9 9 9 10 9 9 9 19 22 24 24 24 24 25 25 25 24 24 25 26 26 27 27 26 26 26 26 27 27 27 26 26 26 26 26 25 25 25 25 24
1 1 1 1 1 1 2 1 2 1 2 1 2 2 2 3 3 3 3 5 9 11 13 8 9 8 9 8 10 9 9 10 10 11 10 10 9 8 10 10 7 15 22 23 24 24 24 25 25 25 24 24 24 26 26 27 27 27 26 26 26 26 26 26 26 26 26 26 25 24 23 24 24 24
1 0 0 1 0 1 1 1 1 2 1 2 2 2 2 2 3 3 3 4 6 9 12 11 7 9 10 10 7 9 9 9 10 9 11 10 10 10 9 10 9 12 21 23 23 23 23 24 25 25 24 25 26 26 27 27 27 27 27 26 26 26 25 25 25 25 25 25 26 25 24 23 23 22
1 0 0 1 0 1 1 2 1 1 1 1 1 2 2 2 3 3 3 5 5 7 10 11 7 7 8 8 8 8 10 11 9 9 10 10 10 10 9 8 9 15 20 20 21 21 22 23 24 24 25 26 26 27 28 28 28 27 26 26 26 26 25 25 24 24 24 24 24 25 24 23 22 21
0 0 1 1 1 1 1 2 1 0 0 1 1 2 2 3 3 3 4 4 5 7 9 9 12 7 9 12 8 6 10 13 14 13 11 9 8 9 10 8 8 8 8 8 8 12 15 17 21 25 26 27 28 28 28 27 27 26 26 26 26 25 25 24 24 24 24 24 24 24 24 24 24 24
0 0 1 1 1 1 2 2 2 2 2 2 3 3 3 3 2 4 5 7 8 8 10 11 10 12 11 10 16 13 10 12 11 13 13 13 8 8 9 12 8 8 10 12 17 16 16 18 17 21 26 28 28 27 26 25 26 25 25 26 26 25 25 25 25 24 24 24 24 24 24 23 24 24
0 1 1 1 2 2 3 2 3 2 2 2 3 3 3 3 4 6 7 7 8 9 10 10 11 9 9 9 8 9 9 11 11 8 11 15 13 11 11 10 12 10 10 11 9 9 11 12 14 19 20 22 24 26 24 23 23 24 25 25 25 25 25 25 25 24 24 23 23 23 24 24 23 24
1 1 1 1 2 3 6 6 4 5 5 2 2 3 3 4 5 5 5 5 6 7 7 9 7 9 9 9 10 12 11 10 13 12 14 15 14 13 13 9 8 10 12 11 10 9 7 9 9 10 9 9 16 16 20 17 19 21 23 25 25 25 25 25 25 24 24 23 23 23 23 23 23 23
1 1 2 3 6 6 5 5 6 7 8 8 5 3 3 4 4 4 5 5 5 7 9 9 9 9 8 8 7 10 12 11 11 14 14 13 16 13 13 12 8 9 11 11 11 8 6 9 11 9 9 9 10 9 9 8 15 22 26 25 25 25 24 24 24 24 24 23 23 23 23 22 22 22
2 3 3 3 4 4 5 3 7 8 8 8 9 9 9 7 5 4 6 7 7 8 9 8 8 7 10 13 11 10 12 13 17 13 13 16 13 14 13 16 10 2 7 9 11 11 8 10 11 9 9 9 8 8 8 20 26 26 25 24 24 24 24 24 23 22 22 21 22 23 22 22 22 22
3 3 3 3 3 3 3 3 3 5 8 9 10 10 10 10 12 11 8 9 8 8 9 10 10 11 14 14 12 12 14 15 13 14 14 12 17 14 17 9 13 7 9 13 14 15 7 8 9 10 9 9 8 9 19 27 26 25 24 24 24 24 24 23 22 22 22 22 23 24 23 22 22 22
3 3 4 3 3 3 7 4 3 3 4 8 12 13 13 13 14 14 15 15 11 9 10 11 13 11 13 15 13 14 16 17 18 15 13 12 13 14 14 14 14 14 14 15 14 13 8 8 8 9 9 9 8 9 15 24 25 25 25 24 24 24 23 23 22 22 23 23 23 23 24 23 23 22
4 4 4 3 4 3 3 3 5 4 5 6 7 8 8 8 10 13 14 15 18 15 11 11 12 14 13 14 16 16 16 16 14 14 14 14 15 15 16 17 16 14 10 11 13 12 7 5 8 9 9 8 8 7 15 24 24 24 24 24 24 23 23 24 25 25 25 24 23 23 23 23 23 23
6 5 5 4 4 4 4 5 6 6 7 7 8 8 7 6 5 4 6 7 8 8 8 11 13 13 13 14 16 15 14 16 16 14 16 16 16 16 15 11 9 10 9 13 11 13 8 5 8 11 12 10 11 10 15 21 24 24 23 23 23 24 26 26 25 25 25 25 24 24 23 23 24 24
4 4 5 5 5 5 5 9 13 10 7 7 9 6 4 4 5 5 6 13 14 12 11 10 11 12 14 18 17 17 15 13 12 12 11 9 9 10 10 10 9 9 8 8 10 10 9 6 10 13 11 10 12 10 9 17 21 22 23 24 26 27 26 25 25 25 25 25 24 24 24 23 24 24
5 5 5 6 6 6 6 11 13 13 11 7 4 4 6 7 6 5 5 11 15 16 17 17 18 20 22 22 22 22 23 17 15 11 10 8 8 10 11 11 9 10 10 9 10 10 10 7 10 12 9 11 14 12 10 8 17 22 24 27 27 25 26 26 25 24 24 25 25 25 24 24 24 26
6 6 12 10 7 7 7 13 14 13 12 5 3 5 8 8 6 6 5 5 7 13 13 14 17 18 18 18 18 18 19 20 16 9 10 11 10 10 10 13 12 12 11 10 8 10 9 9 8 10 8 8 6 8 9 12 12 18 19 23 26 26 26 25 25 24 24 25 25 25 25 25 24 15
6 6 8 13 11 9 11 15 14 15 10 2 4 6 6 7 7 6 6 8 7 4 6 7 7 8 10 9 8 10 18 18 15 10 10 10 10 11 11 12 13 13 8 8 12 12 9 10 8 9 11 9 6 7 8 9 9 9 8 11 14 22 24 26 25 25 24 24 24 24 25 24 22 11
6 7 7 9 14 15 15 15 14 12 11 6 5 5 5 5 9 6 7 4 4 6 5 7 7 8 7 7 7 6 8 9 10 10 10 10 9 9 10 11 10 11 12 11 14 12 9 8 10 7 9 13 8 6 10 11 8 7 8 11 11 16 21 21 19 23 24 23 25 24 24 24 21 11
7 7 7 6 12 15 14 14 14 12 11 11 6 3 3 4 8 10 1 4 7 4 5 6 7 6 5 5 4 5 6 7 8 8 10 9 9 9 9 10 10 11 11 12 19 12 10 10 11 9 10 9 11 10 8 12 11 8 9 9 11 12 10 10 9 11 15 21 22 23 22 22 23 17
7 7 6 6 10 15 14 14 13 13 12 13 5 3 11 14 14 5 3 1 2 3 4 6 6 6 5 6 5 5 5 6 7 8 8 9 10 9 9 10 12 12 12 14 22 14 12 12 11 13 12 11 10 9 12 10 12 11 9 8 9 11 10 10 10 11 11 10 10 12 17 24 23 23
8 6 7 8 13 15 15 15 14 13 14 8 5 11 13 12 11 3 2 4 3 3 4 5 6 7 5 6 6 6 6 7 8 8 8 9 10 10 10 11 12 13 14 13 12 12 10 11 12 13 14 12 15 12 11 10 11 11 11 9 10 10 10 9 10 11 10 10 10 19 21 20 21 22
7 7 8 8 15 15 15 16 15 14 10 6 10 12 12 12 2 2 2 1 1 4 4 5 6 7 5 4 5 5 6 7 8 10 9 9 9 9 10 11 12 11 12 11 11 12 11 11 11 11 12 12 13 13 12 10 10 9 12 11 10 10 9 9 10 11 11 10 9 9 9 10 10 10
8 10 14 16 16 17 16 17 15 8 6 9 11 11 12 4 2 0 0 2 1 3 5 5 6 6 5 5 6 7 7 8 8 7 8 7 8 8 9 10 9 9 8 8 9 10 10 10 10 10 10 10 11 11 12 12 12 12 11 12 12 10 11 12 10 10 10 10 10 10 10 10 11 10
17 16 17 18 18 17 16 6 1 3 3 7 11 11 7 1 1 1 2 1 2 4 4 5 6 7 6 6 6 7 7 6 7 7 8 9 9 8 9 11 10 5 5 6 8 9 9 11 11 11 11 10 10 11 11 11 11 11 12 12 13 13 11 9 8 9 10 11 11 11 11 10 10 10
11 13 13 10 12 9 10 10 8 4 4 4 3 2 2 2 2 3 2 4 4 4 5 6 6 6 6 6 6 6 6 6 6 5 7 7 9 9 9 10 11 11 8 4 5 7 8 10 11 12 11 11 10 9 11 10 11 11 11 11 11 11 11 12 12 11 9 10 10 11 11 10 10 9
6 4 7 11 6 3 0 1 2 0 0 2 5 5 4 4 4 5 6 6 3 3 3 4 5 6 5 6 6 6 6 6 6 5 6 6 9 8 9 9 10 10 12 10 6 6 7 8 9 9 10 11 12 12 10 10 10 10 11 11 11 11 11 10 11 11 12 12 11 11 11 10 10 10
3 4 6 6 7 6 6 4 4 2 2 4 5 5 4 5 4 3 1 3 6 5 3 4 5 6 5 7 6 6 6 6 5 4 6 5 6 8 6 8 9 10 12 13 12 11 9 8 7 10 10 10 11 12 11 10 9 9 9 10 9 9 9 10 11 13 14 13 12 12 12 11 9 9
6 7 7 8 8 7 7 7 7 6 5 6 6 5 5 5 4 4 4 4 6 4 4 4 4 5 5 7 6 6 6 7 5 5 7 7 6 7 8 9 10 8 9 10 11 10 11 11 10 9 8 9 9 10 10 9 10 8 8 8 10 11 10 10 10 12 11 10 11 13 13 13 10 7
9 8 9 8 7 8 8 8 8 6 6 7 6 6 6 4 5 5 5 5 5 5 4 4 4 5 5 6 6 6 6 7 7 6 4 4 5 6 8 9 10 10 10 10 10 9 10 11 11 12 12 10 10 3 10 6 5 9 9 9 8 9 10 10 10 11 12 11 10 10 10 11 12 9
9 8 9 8 8 8 8 9 7 6 6 7 7 6 5 6 4 6 6 4 5 5 4 4 5 5 5 5 6 6 6 7 7 6 7 5 6 7 7 8 9 10 9 8 9 9 8 9 9 11 11 11 11 14 7 4 10 8 9 10 10 10 10 11 11 11 10 10 10 10 8 8 10 10
10 8 9 9 8 8 9 8 7 7 7 7 7 7 7 7 6 5 5 3 5 5 5 4 5 5 5 6 7 7 7 6 7 6 6 6 5 6 8 9 9 9 9 9 7 8 7 8 9 9 10 10 11 14 17 11 10 11 8 10 11 10 11 10 11 11 9 10 11 10 9 8 9 9
9 7 8 8 8 8 8 7 7 7 7 6 6 6 7 6 5 5 3 4 6 5 5 6 5 5 5 6 6 6 6 5 5 6 6 6 6 7 8 9 10 9 9 9 8 7 7 7 8 8 8 9 10 11 16 16 11 8 13 14 12 11 10 11 11 8 9 10 9 10 10 9 8 8
9 8 8 8 8 7 8 7 7 7 6 6 6 7 7 6 5 4 3 5 5 5 5 5 5 5 6 6 6 5 6 6 6 6 6 5 6 7 8 8 9 10 9 10 9 7 6 6 7 8 9 10 12 13 13 15 16 14 14 18 12 11 11 9 9 10 9 10 11 11 9 8 9 12
5 5 6 6 7 6 7 6 6 6 6 7 7 7 7 6 6 6 5 6 5 5 6 6 5 5 5 5 6 6 6 6 7 6 6 6 6 7 7 7 8 9 10 10 10 10 8 8 8 10 10 10 11 11 12 12 12 11 9 12 20 16 11 9 11 11 11 10 11 11 9 6 6 6
5 6 6 5 5 5 6 6 6 6 6 6 6 6 6 6 6 6 5 5 6 6 6 6 5 4 6 6 5 5 6 6 6 6 6 6 8 9 10 10 8 8 9 11 10 10 9 8 12 22 17 11 11 11 9 8 10 9 9 9 15 19 19 16 12 11 11 10 9 8 9 7 5 5
5 7 6 5 7 7 6 6 6 6 6 6 6 7 6 6 6 7 6 7 6 5 6 5 5 5 5 5 6 5 5 6 6 6 6 6 8 8 8 6 7 8 8 10 10 10 10 9 11 11 9 9 8 9 10 10 10 10 9 10 9 12 16 19 20 17 12 8 7 8 8 7 5 5
6 7 8 6 6 6 6 6 6 6 6 6 6 6 6 6 6 6 5 6 6 5 6 6 5 5 6 5 5 5 5 6 6 6 6 7 7 7 7 7 7 8 9 10 9 9 9 10 9 9 8 7 7 8 9 10 8 9 10 11 11 9 10 16 18 19 17 14 13 11 8 7 6 5
5 5 5 4 5 6 6 6 6 6 6 6 6 6 6 6 7 7 6 6 6 6 6 6 6 5 6 6 5 5 6 6 6 6 6 6 6 7 7 7 8 8 8 9 10 9 8 8 8 9 9 8 8 8 9 10 9 10 9 10 9 10 12 10 11 13 12 12 16 18 19 16 11 10
5 5 5 5 5 5 5 5 6 5 6 6 6 6 7 6 6 6 6 6 6 6 6 6 6 6 5 5 5 6 6 7 6 5 6 6 7 7 6 7 8 8 9 8 10 11 9 9 8 6 6 7 7 8 9 9 10 10 10 10 11 10 9 9 10 11 10 9 13 20 18 17 15 14
Wind_Direction
80 66 62 71 55 37 47 48 43 35 30 26 36 53 99 346 300 321 314 306 298 306 53 5 292 33 3 2 351 339 335 332 335 335 331 326 322 323 327 329 328 326 325 325 325 322 320 319 320 320 320 320 319 318 317 316 315 315 313 311 309 307 307 306 305 304 304 302 300 298 297 295 293 291
86 70 53 53 42 32 61 59 47 41 32 27 18 23 352 42 212 263 300 294 266 282 327 57 316 336 343 353 343 331 324 329 333 331 329 326 320 324 328 327 326 326 326 326 323 322 323 323 322 320 319 318 316 315 314 314 313 313 312 312 311 310 309 308 306 305 304 303 300 299 298 296 294 292
85 78 57 44 32 43 62 54 37 15 18 354 2 339 21 335 352 256 269 298 275 122 316 5 325 310 336 338 328 323 322 328 330 325 322 320 320 324 323 324 325 325 325 323 323 324 325 324 323 323 321 320 319 318 317 316 315 313 312 311 310 308 308 308 307 305 303 302 300 298 297 297 296 294
82 78 61 32 38 15 58 43 31 9 341 351 334 327 331 314 304 299 271 260 278 289 308 308 303 317 329 333 324 325 324 321 322 316 315 313 317 319 315 318 321 320 321 321 323 324 325 325 326 325 323 321 320 319 318 318 316 314 313 311 310 310 308 306 304 304 303 302 301 300 298 297 296 295
77 75 63 25 1 64 58 43 19 4 337 346 348 349 20 341 316 317 279 280 287 294 293 330 323 324 329 324 334 320 322 318 316 314 308 309 314 313 311 310 312 315 316 318 320 321 323 325 326 325 325 323 322 321 320 320 320 319 319 317 315 312 310 308 308 307 304 301 299 298 297 295 293 292
72 82 71 12 0 23 73 47 9 349 342 351 22 351 19 336 318 303 300 286 282 291 307 330 325 316 333 318 331 321 321 318 315 313 313 311 309 310 309 306 304 308 314 316 318 320 321 322 324 324 323 322 322 322 321 320 319 318 317 317 315 313 311 311 311 310 310 307 301 296 295 295 294 293
99 68 71 341 5 5 36 16 349 344 331 2 41 19 353 340 309 309 300 300 295 297 297 326 324 327 322 325 320 319 306 304 306 307 310 311 308 302 304 303 297 304 312 315 318 318 319 320 320 320 319 319 320 318 318 319 319 318 317 317 317 314 312 310 307 305 306 308 307 302 297 294 293 291
123 145 105 301 15 15 37 336 342 321 20 64 41 1 331 328 309 310 301 294 292 298 300 313 329 319 319 317 316 306 299 300 305 304 301 298 298 298 296 297 299 300 307 314 314 314 314 316 317 316 315 316 318 316 316 316 316 316 316 317 317 315 313 310 307 304 304 305 307 309 302 297 295 293
140 137 180 228 306 16 17 313 313 308 78 60 20 335 300 294 289 290 284 284 278 285 292 300 308 312 304 303 306 305 309 309 300 297 296 300 298 297 289 289 292 296 302 301 300 300 305 311 313 313 314 314 314 314 314 314 314 314 315 317 316 314 313 313 310 305 303 304 304 304 306 305 301 298
154 158 249 253 229 275 267 272 272 188 180 270 294 290 276 265 274 273 276 273 285 291 293 301 310 314 318 320 312 314 311 311 313 311 302 294 292 294 298 290 293 294 292 297 284 285 287 289 304 312 312 311 312 312 313 312 312 313 314 314 314 313 312 312 313 309 306 305 303 301 302 305 307 306
1 265 239 243 236 236 247 247 242 212 241 249 260 247 243 254 252 292 306 309 306 302 302 301 298 303 303 301 309 313 307 297 297 303 305 303 296 289 292 300 294 291 290 281 283 283 286 292 301 305 309 310 311 311 311 312 312 311 311 311 312 311 311 313 313 312 309 307 304 303 301 302 301 299
274 267 261 252 254 238 244 223 228 220 252 238 242 241 233 241 269 293 291 293 294 293 292 288 297 294 287 294 276 289 302 305 303 299 301 301 309 304 294 289 302 302 290 294 288 279 282 279 286 294 299 305 306 308 309 308 308 308 309 309 310 311 313 313 312 311 310 308 306 304 302 300 299 299
232 274 273 267 265 251 241 255 287 294 291 262 250 258 219 235 252 268 275 278 285 285 284 289 279 285 285 288 300 307 309 302 301 303 302 290 293 301 298 287 285 288 294 292 289 291 293 297 295 298 298 297 298 298 300 302 303 301 307 310 312 313 313 313 311 310 310 309 308 305 303 301 300 298
251 247 261 270 279 278 283 287 290 291 289 291 290 265 239 250 256 258 266 277 276 285 291 290 291 290 282 292 281 283 283 282 282 299 302 295 305 302 298 289 291 292 288 294 295 295 305 304 300 298 297 294 295 295 298 294 304 309 312 312 312 312 313 312 312 312 311 310 309 307 304 301 299 298
238 264 253 251 262 270 280 282 280 282 287 293 295 294 293 291 285 288 291 283 279 285 286 289 292 279 287 299 296 285 296 308 307 300 303 303 301 305 305 310 311 206 296 303 304 301 306 302 298 302 296 295 293 299 293 305 311 311 311 310 313 314 314 314 314 312 311 312 313 312 311 309 307 302
215 233 247 249 240 237 224 228 239 270 287 293 292 290 290 286 284 284 284 292 298 295 298 303 300 301 296 294 299 303 311 311 308 305 301 300 301 299 301 296 303 336 342 317 309 301 310 296 294 297 296 296 295 292 305 311 312 311 311 314 315 315 315 315 313 311 314 317 316 313 311 310 307 308
222 222 230 243 248 241 261 272 268 255 263 280 282 278 275 274 279 288 293 295 297 303 299 296 294 297 304 306 308 313 311 309 304 300 301 296 300 302 307 310 321 326 329 307 297 295 307 295 297 295 295 289 288 292 303 310 311 312 313 315 317 317 317 315 315 317 317 317 314 312 310 309 309 308
226 219 214 231 251 248 248 246 249 252 256 256 259 259 256 253 260 272 285 298 298 294 290 292 293 303 307 304 307 310 309 310 310 314 311 320 315 314 309 311 304 302 304 293 295 287 297 299 302 297 296 296 296 297 306 311 312 313 314 316 317 316 317 318 318 317 315 314 313 312 311 310 308 307
225 221 226 224 229 235 245 245 242 240 245 250 250 252 256 254 249 260 280 288 298 302 300 297 296 299 303 301 305 310 316 315 314 315 313 313 309 300 295 284 288 293 282 280 280 286 305 315 303 306 314 321 311 304 307 309 311 313 315 317 318 319 318 316 314 313 313 313 313 312 311 311 309 308
211 215 221 228 234 237 240 251 262 263 256 254 257 261 263 267 281 272 286 303 304 301 298 296 295 299 305 311 314 316 317 319 316 309 305 297 295 305 305 297 300 295 298 283 295 293 302 326 315 315 315 310 303 307 307 309 312 316 317 318 319 316 315 315 315 314 312 312 313 314 314 313 312 312
215 214 219 222 223 231 234 251 259 260 264 261 256 275 290 290 277 281 298 301 302 302 299 300 308 313 315 316 318 321 322 321 323 320 313 311 318 305 304 310 314 315 323 314 296 297 308 337 323 302 299 308 308 302 300 305 312 314 317 317 315 315 316 315 313 313 313 314 314 314 314 314 314 314
216 213 224 226 218 222 229 248 255 257 260 252 264 296 288 278 289 292 296 292 280 291 305 316 316 316 316 321 324 324 326 330 335 327 318 313 308 306 314 315 316 311 311 304 335 323 314 314 298 297 299 291 277 292 301 302 305 312 312 312 313 313 313 313 314 315 314 314 313 313 313 313 314 314
208 220 227 234 232 225 232 244 250 253 251 260 276 271 267 279 285 289 300 291 298 329 332 318 321 313 319 320 319 320 329 332 333 325 317 324 328 324 321 319 318 311 304 322 336 308 305 306 308 314 312 297 280 277 280 290 295 298 299 303 305 309 314 314 314 313 312 312 312 312 312 313 315 312
224 213 219 232 235 238 240 246 250 252 252 262 259 258 262 281 288 292 276 287 342 331 331 313 312 305 308 310 313 315 320 328 331 332 332 331 327 320 317 312 308 301 303 313 315 304 300 305 303 305 289 298 308 312 303 294 292 291 296 301 298 307 312 311 309 308 308 310 310 310 311 312 313 307
209 214 218 210 230 235 238 244 244 244 256 263 264 260 252 258 275 284 26 348 353 336 319 311 305 302 303 305 314 315 321 328 330 327 324 320 318 313 308 305 299 293 297 306 319 317 310 316 301 301 295 287 291 293 296 297 298 293 291 290 295 301 303 301 300 301 303 304 305 306 306 307 309 309
215 211 214 215 227 233 236 237 237 247 257 261 254 263 278 282 285 309 101 7 10 333 312 305 302 306 312 315 322 320 319 319 318 314 313 317 315 309 304 303 305 304 307 316 321 319 316 310 315 312 304 296 294 298 298 290 293 297 287 278 281 291 297 298 299 298 298 297 298 297 300 307 308 307
214 210 216 220 230 235 236 233 234 245 252 264 277 273 275 279 287 46 22 31 345 318 300 299 301 303 309 316 316 320 316 315 313 309 306 301 306 310 308 306 303 302 303 309 311 305 301 299 306 305 305 302 300 298 287 291 299 301 296 294 294 293 294 296 295 295 294 294 292 297 302 300 298 297
210 211 214 209 229 239 235 232 239 242 246 255 264 271 275 275 330 84 48 356 296 291 298 293 292 296 296 297 301 306 308 307 308 304 300 298 297 299 298 299 296 294 300 303 308 313 308 301 300 299 303 309 311 312 310 304 293 298 296 299 297 298 300 298 294 292 291 291 293 293 296 295 293 296
212 217 217 224 234 238 234 236 240 236 245 266 274 274 268 278 96 82 170 251 270 299 285 281 280 282 282 281 282 290 301 300 299 295 292 291 289 288 288 288 288 290 295 298 303 306 304 308 306 307 306 307 304 307 311 310 313 309 309 313 309 312 306 298 291 290 292 295 292 294 289 291 293 292
222 226 230 232 234 234 238 240 143 154 200 252 263 267 277 88 223 176 216 246 252 259 268 271 279 280 290 293 294 298 296 298 294 297 302 310 311 312 312 311 304 285 260 281 294 299 305 316 314 313 309 306 307 304 306 309 305 305 310 305 300 297 287 286 289 289 293 294 295 292 289 283 282 285
231 232 231 229 235 229 207 211 226 210 230 265 289 296 274 254 222 221 204 225 237 250 255 272 275 281 284 292 302 302 301 296 292 290 299 305 306 314 314 311 306 314 307 289 286 297 307 311 315 317 307 304 299 294 297 296 295 298 295 289 291 293 298 301 299 297 293 292 290 289 288 287 281 272
224 214 233 239 253 244 15 64 50 351 122 225 246 252 245 237 237 236 250 259 238 248 246 265 284 290 297 297 294 296 295 286 288 295 301 303 306 312 313 312 311 313 313 317 309 303 307 306 307 304 301 299 298 297 294 287 285 285 283 285 289 287 291 297 304 307 308 307 301 294 291 288 286 286
211 211 226 229 236 223 226 231 238 257 280 265 246 251 263 263 259 261 235 250 261 252 257 268 270 280 291 292 290 288 290 289 293 300 297 294 300 307 305 299 304 313 318 319 324 325 323 315 303 303 297 291 282 282 288 292 282 282 287 295 303 308 312 314 309 303 305 305 300 298 294 288 281 280
208 215 214 218 217 221 216 224 227 231 232 250 263 255 242 238 238 246 249 247 256 254 248 254 270 280 286 287 291 291 291 295 296 295 309 304 303 307 311 310 308 307 306 310 316 321 323 323 318 308 289 278 268 264 269 269 283 297 314 321 316 307 302 300 299 299 300 296 296 297 296 295 291 280
215 207 215 217 210 217 215 216 220 213 217 231 234 249 242 233 236 247 248 251 247 252 254 262 261 267 270 276 282 289 293 296 301 305 293 285 296 295 305 308 309 313 315 315 317 322 325 323 326 325 325 323 315 262 230 259 325 317 310 305 300 299 298 301 303 306 303 298 293 285 283 287 294 297
222 209 212 213 211 208 214 219 214 211 213 220 221 228 240 246 226 220 239 242 230 247 253 265 272 265 262 266 276 279 286 294 298 303 305 307 306 305 302 298 302 305 307 308 313 320 321 321 328 328 327 329 328 323 321 18 327 321 317 308 305 304 302 303 303 300 300 301 302 296 282 285 292 301
217 208 211 213 209 202 215 213 208 215 212 213 217 212 218 234 235 213 225 245 250 248 243 246 255 264 272 273 278 279 284 290 292 299 300 299 295 299 304 303 305 307 309 310 311 313 319 320 325 325 325 325 326 319 307 318 331 333 314 307 303 302 305 306 307 304 307 316 311 312 307 299 300 300
222 200 203 213 212 208 211 209 207 215 217 215 217 220 222 224 233 234 216 227 241 249 256 262 266 270 270 269 274 283 283 278 277 288 293 299 305 308 306 303 308 312 311 308 313 312 316 315 319 324 322 314 312 316 316 321 324 329 326 311 303 305 313 311 304 310 320 314 307 312 319 313 307 305
221 211 208 211 213 205 211 210 203 218 216 218 216 219 224 224 224 231 225 232 239 244 252 252 256 256 262 265 265 271 286 293 297 293 295 296 297 300 302 304 307 312 314 311 313 315 320 321 324 325 321 316 317 315 313 308 309 312 308 314 323 320 312 310 320 324 312 311 312 307 290 277 281 297
217 212 222 216 220 204 215 203 208 214 217 219 222 219 213 222 219 218 226 231 238 245 240 248 253 260 260 266 274 277 273 268 275 288 294 298 300 296 292 299 305 309 310 308 314 317 321 322 325 323 316 312 301 294 293 286 284 290 300 318 324 319 314 336 328 317 313 312 310 302 302 315 329 325
220 224 223 201 218 207 215 211 208 208 220 220 221 223 215 213 216 223 219 224 223 241 248 245 243 251 264 267 265 265 276 283 279 281 288 294 296 296 297 307 306 307 308 305 309 309 312 318 314 315 312 298 295 290 291 301 309 309 309 313 322 319 327 329 317 311 308 307 303 314 331 324 312 336
216 231 233 203 214 218 210 219 208 211 221 215 214 218 223 215 217 229 230 240 237 230 239 252 255 256 261 260 266 271 273 277 284 284 287 292 292 291 295 301 300 306 306 304 308 305 303 312 307 304 299 305 307 320 320 317 309 310 313 313 307 318 325 323 323 320 315 314 329 336 337 331 327 353
224 231 235 222 213 218 214 218 215 210 218 209 216 214 216 221 225 231 238 234 236 241 246 254 251 249 256 262 262 259 266 276 275 280 282 283 285 295 301 297 295 299 299 293 294 296 304 308 307 308 307 306 318 314 303 306 305 308 312 314 314 325 326 324 325 328 331 339 359 358 350 342 346 346
232 236 241 223 217 218 216 214 215 213 212 211 215 208 209 212 224 226 223 226 229 236 236 240 247 245 252 259 264 267 260 264 271 273 280 286 296 293 289 297 300 299 299 300 302 306 307 307 308 312 314 320 317 310 308 313 315 317 312 308 318 329 325 328 325 331 342 347 353 356 354 359 358 353
260 244 236 217 216 220 218 214 219 216 213 213 208 210 213 213 222 228 228 225 229 233 235 238 244 246 247 255 264 273 269 267 276 282 291 292 284 282 286 292 297 297 299 306 310 308 313 310 307 304 302 307 309 304 307 313 314 315 313 320 324 323 321 327 333 334 336 331 341 346 350 356 360 358